AG6V Weather Reports


time (UTC)temp
C
wind
direction
speed
KPH
gust
KPH
rain 1hr
cm
rain 24hr
cm
rain mn
cm
humidity
%
barometer
mb
20260505063059 13 59 0.0 3.2 0.00 0.00 0.00 81 1011.5
20260505061558 13 268 0.0 1.6 0.00 0.00 0.00 80 1011.1
20260505060059 13 194 0.0 6.4 0.00 0.00 0.00 79 1010.8
20260505054558 13 114 0.0 1.6 0.00 0.00 0.00 78 1010.8
20260505053056 13 65 0.0 1.6 0.00 0.00 0.00 78 1011.0
20260505051556 13 326 0.0 1.6 0.00 0.00 0.00 77 1011.0
20260505041554 15 266 0.0 11.3 0.00 0.00 0.00 72 1010.4
20260505034553 15 194 0.0 0.0 0.00 0.00 0.00 71 1009.9
20260505033052 15 187 0.0 0.0 0.00 0.00 0.00 70 1009.6
20260505031558 16 180 0.0 4.8 0.00 0.00 0.00 68 1009.7
20260505030057 17 146 0.0 4.8 0.00 0.00 0.00 66 1009.6
20260505024553 17 161 0.0 0.0 0.00 0.00 0.00 65 1009.6
20260505023051 18 153 0.0 0.0 0.00 0.00 0.00 66 1009.4
20260505021549 18 88 0.0 4.8 0.00 0.00 0.00 64 1009.5
20260505020051 19 101 0.0 0.0 0.00 0.00 0.00 63 1009.4
20260505014602 20 130 0.0 0.0 0.00 0.00 0.00 63 1009.4
20260505013047 21 165 0.0 0.0 0.00 0.00 0.00 62 1009.4
20260505011551 21 202 0.0 9.7 0.00 0.00 0.00 58 1009.5
20260505010045 22 183 0.0 1.6 0.00 0.00 0.00 52 1009.7
20260505004545 24 198 0.0 0.0 0.00 0.00 0.00 45 1009.7
20260505003044 25 187 0.0 11.3 0.00 0.00 0.00 44 1009.6
20260505001545 25 161 0.0 0.0 0.00 0.00 0.00 46 1009.7
20260505000047 25 193 0.0 0.0 0.00 0.00 0.00 45 1009.8
20260504234541 26 227 0.0 4.8 0.00 0.00 0.00 44 1009.9
20260504233041 26 168 0.0 1.6 0.00 0.00 0.00 44 1010.0
20260504231541 26 232 0.0 0.0 0.00 0.00 0.00 44 1010.0
20260504230045 27 111 0.0 0.0 0.00 0.00 0.00 44 1010.1
20260504224545 27 312 0.0 0.0 0.00 0.00 0.00 46 1010.1
20260504223038 27 338 0.0 0.0 0.00 0.00 0.00 45 1010.2
20260504221539 27 16 0.0 0.0 0.00 0.00 0.00 47 1010.3
20260504220037 27 217 0.0 0.0 0.00 0.00 0.00 46 1010.3
20260504214536 27 216 0.0 0.0 0.00 0.00 0.00 44 1010.5
20260504213035 27 216 0.0 0.0 0.00 0.00 0.00 47 1010.5
20260504211534 27 216 0.0 0.0 0.00 0.00 0.00 47 1010.6
20260504210037 26 216 0.0 0.0 0.00 0.00 0.00 47 1010.6
20260504204532 26 216 0.0 0.0 0.00 0.00 0.00 49 1010.8
20260504203026 25 216 0.0 0.0 0.00 0.00 0.00 50 1010.8
20260504201522 25 318 0.0 0.0 0.00 0.00 0.00 50 1010.9
20260504200019 23 318 0.0 0.0 0.00 0.00 0.00 50 1010.9
20260504194517 23 273 0.0 0.0 0.00 0.00 0.00 51 1010.9
20260504193016 23 273 0.0 0.0 0.00 0.00 0.00 57 1010.9
20260504191512 22 42 0.0 0.0 0.00 0.00 0.00 57 1011.0
20260504190109 21 42 0.0 0.0 0.00 0.00 0.00 63 1010.9
20260504184504 21 42 0.0 0.0 0.00 0.00 0.00 66 1010.8
20260504183007 20 43 0.0 0.0 0.00 0.00 0.00 65 1010.8
20260504181605 20 43 0.0 0.0 0.00 0.00 0.00 61 1011.0
20260504180116 20 43 0.0 0.0 0.00 0.00 0.00 61 1010.9
20260504174556 20 45 0.0 0.0 0.00 0.00 0.00 60 1011.1
20260504173106 20 45 0.0 0.0 0.00 0.00 0.00 65 1010.9
20260504171551 17 45 0.0 0.0 0.00 0.00 0.00 66 1011.0
20260504081550 13 274 0.0 0.0 0.00 0.00 0.00 72 1009.9